Location: Eboldshausen
(51.7766°N, 10.0050°E)
Time: 07:43:53
(UTC+00:00)

IDEFIX/ARIANE 42P - Pass Details

Date: 15 June 2024
Orbit: 782 x 800 km, 98.5° (Epoch: 22 July)

Event Time Altitude Azimuth Distance (km) Brightness Sun altitude
Rises 01:42:07 0° 12° (NNE) 3,321 7.3 -8.7°
Reaches altitude 10° 01:44:29 10° 10° (N) 2,385 6.3 -8.6°
Maximum altitude 01:49:40 62° 291° (WNW) 894 2.8 -8.1°
Drops below altitude 10° 01:54:48 10° 211° (SSW) 2,358 4.3 -7.7°
Enters shadow 01:54:58 - 211° (SSW) 2,418 4.4 -7.6°
